Regional Weather Roundup
Issued by NWS Boston, MA

Home | Current Version | Previous Version | Text Only | Print | Product List | Glossary On
Versions: 1 2 3 4 5 6 7 8 9 10 11 12 13 14 15 16 17 18 19 20 21 22 23 24 25 26 27 28 29 30 31 32 33 34 35 36 37 38 39 40 41 42 43 44 45 46 47 48 49 50
000
ASUS41 KBOX 090210
RWRBOX

REGIONAL WEATHER ROUNDUP
NATIONAL WEATHER SERVICE TAUNTON MA
900 PM EST MON FEB 08 2016

NOTE:  "FAIR" INDICATES FEW OR NO CLOUDS BELOW 12,000 FEET WITH NO
SIGNIFICANT WEATHER AND/OR OBSTRUCTIONS TO VISIBILITY.  THE FOLLOWING
OBSERVATION LOCATIONS DO NOT REPORT PRESENT WEATHER...PROVINCETOWN...
SMITHFIELD...BLOCK ISLAND...KEENE...AND OXFORD.

MAZALL-090300-
EASTERN MASSACHUSETTS

CITY           SKY/WX    TMP DP  RH WIND       PRES   REMARKS
BOSTON         LGT SNOW  20  16  84 N13       29.80R FOG     WCI   7
BEVERLY        LGT SNOW  20  15  81 N12       29.78S WCI   8
LAWRENCE       LGT SNOW  20  16  84 N13       29.82R FOG     WCI   7
BEDFORD        LGT SNOW N/A N/A N/A N7          N/A
BLUE HILL        N/A     17  15  92 N14G21    29.73R WCI   3
NORWOOD        LGT SNOW  21  16  81 N9        29.79S FOG     WCI  11
MARSHFIELD     MIX PCPN  28  27  93 N15G25    29.77R VSB 1   WCI  17
PLYMOUTH       LGT SNOW  22  20  92 NW10      29.74R FOG     WCI  11
TAUNTON        LGT SNOW  22  16  78 VRB7G17   29.76S WCI  13
NEW BEDFORD    CLOUDY    21  18  88 VRB6G22   29.75R FOG     WCI  13
$$

MAZALL-090300-
CAPE COD AND THE ISLANDS

CITY           SKY/WX    TMP DP  RH WIND       PRES   REMARKS
FALMOUTH       LGT SNOW  28  25  86 N14G28    29.71R VSB 3/4 WCI  17
HYANNIS        LGT SNOW  29  27  92 N18G29    29.68R FOG     WCI  16
CHATHAM        LGT SNOW  30  28  92 N9        29.69R FOG     WCI  22
PROVINCETOWN   LGT SNOW  30  28  92 N23G32    29.71S FOG     WCI  17
NANTUCKET      LGT SNOW  33  30  88 N21G28    29.67R FOG     WCI  21
MARTHAS VNYRD  CLOUDY    26  23  88 NW16      29.71R FOG     WCI  14
$$

MAZALL-090300-
CENTRAL AND WESTERN MASSACHUSETTS

CITY           SKY/WX    TMP DP  RH WIND       PRES   REMARKS
WORCESTER      LGT SNOW  18  13  80 N13G21    29.73S VSB 1   WCI   5
FITCHBURG      LGT SNOW  21  15  78 N7        29.81R WCI  12
ORANGE         LGT SNOW  21  18  88 N6        29.78R FOG     WCI  13
SPRINGFIELD    LGT SNOW  22  19  87 NE5       29.79R VSB 1   WCI  16
WESTFIELD      LGT SNOW  22  19  89 N5        29.80R FOG     WCI  16
NORTH ADAMS    LGT SNOW  21  19  92 CALM      29.77R FOG
PITTSFIELD     LGT SNOW  20  18  92 SW6       29.73R FOG     WCI  12
$$

RIZALL-090300-
RHODE ISLAND

CITY           SKY/WX    TMP DP  RH WIND       PRES   REMARKS
PROVIDENCE     LGT SNOW  21  17  84 N15G21    29.79R FOG     WCI   8
NEWPORT        CLOUDY    21  17  84 N15G31    29.76R FOG     WCI   8
BLOCK ISLAND   CLOUDY    25  19  80 N15G21    29.74R WCI  12
SMITHFIELD     CLOUDY    19  16  86 N15       29.75R WCI   5
WESTERLY       CLOUDY    23  17  78 N12       29.78R WCI  12
$$

CTZALL-090300-
CONNECTICUT

CITY           SKY/WX    TMP DP  RH WIND       PRES   REMARKS
BRADLEY INTL   LGT SNOW  23  19  85 NW5       29.80R FOG     WCI  17
HARTFORD       LGT SNOW  24  20  84 N7        29.82R FOG     WCI  16
BRIDGEPORT     LGT SNOW  27  21  78 NE10      29.81S WCI  17
DANBURY        LGT SNOW  25  19  78 NE5       29.79R WCI  19
GROTON         CLOUDY    23  18  81 N14       29.79R WCI  11
NEW HAVEN      LGT SNOW  24  20  84 N9        29.79F FOG     WCI  14
CHESTER        MIX PCPN  25  21  86 N7        29.78S WCI  17
MERIDEN        LGT SNOW  25  19  78 N7        29.81S WCI  17
WILLIMANTIC    FLURRIES  23  16  74 N9        29.80R WCI  13
OXFORD         LGT SNOW  21  10  63 NE8       29.77S FOG     WCI  12
$$

MEZ002-015-021-024-NHZ003-005-008-011-012-014-VTZ005-008-090300-
NORTHERN NEW ENGLAND

CITY           SKY/WX    TMP DP  RH WIND       PRES   REMARKS
PORTLAND ME    SNOW      19  15  84 N16       29.82S VSB 1/2 WCI   4
BANGOR ME      LGT SNOW  18  12  77 N15       29.81R WCI   4
CONCORD NH     LGT SNOW  20  16  84 N9        29.81S VSB 1   WCI   9
MANCHESTER NH  LGT SNOW  20  16  84 N9        29.80S VSB 1   WCI   9
NASHUA NH      LGT SNOW  19  18  93 N8        29.82S FOG     WCI   9
PORTSMOUTH NH  LGT SNOW  19  15  84 N15G23    29.79S VSB 1   WCI   5
JAFFREY NH     LGT SNOW  19  15  84 VRB5      29.75S FOG     WCI  12
KEENE NH       CLOUDY    21  16  79 CALM      29.78S
BURLINGTON VT  LGT SNOW  24  17  74 E6        29.82S WCI  17
MT. WASHINGTON SNOW       1   1 100 E28         N/A  VSB 1/16WCI -23
$$

NYZ052-076-090300-
EASTERN NEW YORK

CITY           SKY/WX    TMP DP  RH WIND       PRES   REMARKS
ALBANY         LGT SNOW  25  21  85 W6        29.81S FOG     WCI  18
NEW YORK CITY  FLURRIES  29  23  78 NE9       29.80R WCI  20
$$

ANZALL-090300-
MARINE OBSERVATIONS

STATION/POSITION TIME  TEMP    WIND        PRES    VSBY  WAVE
                       AIR SEA DIR/SP/G                  HT/PER
                 (UTC) (F)     (DEG/KT/KT) (MB)    (MI)  (FT/S)
BOSTON BUOY      0150   26 41  360/ 25/ 31 1006.9R        15/11
BUZZARDS BAY     0100          350/ 25/ 29 1006.8R
NANTUCKET SOUND  0150   33 42  360/ 23/ 29 1004.1R         5/ 4
MASS BAY-STELLWA 0104   27 43  360/ 25/ 31   N/A    1 7/8 14/12
ISLE OF SHOALS   0100   21      10/ 26/ 31 1007.9R
S OF BLOCK IS    NOT AVBL
$$

......................KEY.........................
  SKY/WX - SKY CONDITION/PRESENT WEATHER
  TMP    - TEMPERATURE IN FAHRENHEIT
  DWPT   - DEWPOINT IN FAHRENHEIT
  RH     - RELATIVE HUMIDITY IN PERCENT
  WIND   - DIRECTION AND SPEED IN MPH
  PRES   - MEAN SEA LEVEL PRESSURE IN INCHES OF HG
  WCI    - WIND CHILL INDEX
  VSB    - VISIBILITY IN MILES
  HX     - HEAT INDEX
  TC     - TEMPERATURE IN CELSIUS
  VRB    - VARIABLE WIND DIRECTION
  N/A    - NOT AVAILABLE



USA.gov is the U.S. government's official web portal to all federal, state and local government web resources and services.